Greensboro, NC

1:16 AM EDT on June 25, 2017 (GMT -0400)
Piedmont Triad International

Weather History for KGSO - June, 2013

Change the Weather History Date:

Sunday, June 9, 2013

  Actual Average Record
Temperature  
Mean Temperature 76 °F 74 °F  
Max Temperature 85 °F 83 °F 99 °F (1933)
Min Temperature 67 °F 64 °F 46 °F (1931)
Degree Days  
Heating Degree Days 0 0  
Month to date heating degree days 0 5  
Since 1 June heating degree days 0 5  
Since 1 July heating degree days 3637 3617  
Cooling Degree Days 11 9  
Month to date cooling degree days 71 71  
Year to date cooling degree days 221 230  
Since 1 June cooling degree days 71 71  
Growing Degree Days 25 (Base 50)    
Moisture  
Dew Point 67 °F    
Average Humidity 76    
Maximum Humidity 100    
Minimum Humidity 51    
Precipitation  
Precipitation 0.62 in 0.13 in 2.00 in (1909)
Month to date precipitation 3.32 1.16  
Year to date precipitation 21.67 17.86  
Sea Level Pressure  
Sea Level Pressure 30.09 in    
Wind  
Wind Speed 5 mph (South)    
Max Wind Speed 13 mph    
Max Gust Speed 45 mph    
Visibility 9 miles    
Events Rain , Thunderstorm    
T = Trace of Precipitation, MM = Missing Value Source: NWS Daily Summary

Daily Weather History Graph

Daily Weather History Graph

Search for Another Location

Airport or City:

Trip Planner

Search our weather history database for the weather conditions in past years. The results will help you decide how hot, cold, wet, or windy it might be!

Date:

Astronomy

Jun. 09, 2013 Rise Set
Actual Time 6:02 AM EDT 8:36 PM EDT
Civil Twilight 5:32 AM EDT 9:06 PM EDT
Nautical Twilight 4:54 AM EDT 9:43 PM EDT
Astronomical Twilight 4:13 AM EDT 10:25 PM EDT
Moon 6:55 AM EDT (6/9) 9:23 PM EDT (6/9)
Length of Visible Light 15h 33m
Length of Day
14h 33m
New Moon, 1% of the Moon is Illuminated
Jun 9
New Moon
Jun 16
First Quarter
Jun 23
Full
Jun 30
Last Quarter
Jul 8
New

Hourly Weather History & Observations

Time (EDT) Temp. Heat Index Dew Point Humidity Pressure Visibility Wind Dir Wind Speed Gust Speed Precip Events Conditions
12:54 AM 71.1 °F - 66.9 °F 87% 30.08 in 10.0 mi SSW 4.6 mph - N/A   Clear
1:54 AM 71.1 °F - 66.9 °F 87% 30.08 in 10.0 mi Calm Calm - N/A   Clear
2:54 AM 70.0 °F - 66.9 °F 90% 30.06 in 10.0 mi South 3.5 mph - N/A   Clear
3:54 AM 69.1 °F - 66.0 °F 90% 30.07 in 10.0 mi Calm Calm - N/A   Clear
4:54 AM 69.1 °F - 66.9 °F 93% 30.09 in 10.0 mi Calm Calm - N/A   Clear
5:54 AM 66.9 °F - 64.9 °F 93% 30.10 in 9.0 mi Calm Calm - N/A   Clear
6:54 AM 66.9 °F - 66.0 °F 97% 30.12 in 7.0 mi South 3.5 mph - N/A   Clear
7:54 AM 72.0 °F - 68.0 °F 87% 30.13 in 10.0 mi South 5.8 mph - N/A   Clear
8:54 AM 75.0 °F - 68.0 °F 79% 30.14 in 10.0 mi SSW 4.6 mph - N/A   Clear
9:54 AM 78.1 °F - 69.1 °F 74% 30.14 in 10.0 mi South 6.9 mph - N/A   Clear
10:54 AM 81.0 °F 83.3 °F 66.9 °F 62% 30.13 in 10.0 mi SSW 8.1 mph - N/A   Scattered Clouds
11:54 AM 82.9 °F 85.0 °F 66.0 °F 56% 30.12 in 10.0 mi Variable 4.6 mph - N/A   Scattered Clouds
12:54 PM 82.9 °F 85.0 °F 66.0 °F 56% 30.12 in 10.0 mi Calm Calm - N/A   Mostly Cloudy
1:54 PM 84.9 °F 86.6 °F 64.9 °F 51% 30.09 in 10.0 mi Variable 3.5 mph - N/A   Mostly Cloudy
2:54 PM 84.9 °F 87.6 °F 66.9 °F 55% 30.06 in 10.0 mi SSE 8.1 mph - N/A   Mostly Cloudy
3:54 PM 84.0 °F 86.3 °F 66.0 °F 55% 30.05 in 10.0 mi South 9.2 mph - N/A   Mostly Cloudy
4:54 PM 82.9 °F 85.0 °F 66.0 °F 56% 30.04 in 10.0 mi South 11.5 mph - N/A   Partly Cloudy
5:17 PM 82.4 °F 84.6 °F 66.2 °F 58% 30.07 in 10.0 mi South 12.7 mph - N/A   Partly Cloudy
5:54 PM 82.0 °F 84.9 °F 68.0 °F 62% 30.05 in 10.0 mi South 9.2 mph - N/A   Clear
6:46 PM 71.6 °F - 64.4 °F 78% 30.10 in 2.0 mi SSE 33.4 mph 44.9 mph 0.00 in Rain , Thunderstorm Thunderstorms and Rain
6:49 PM 69.8 °F - 66.2 °F 88% 30.12 in 0.8 mi SE 29.9 mph 44.9 mph 0.01 in Rain , Thunderstorm Thunderstorms and Rain
6:54 PM 68.0 °F - 64.9 °F 90% 30.11 in 0.5 mi ESE 17.3 mph 44.9 mph 0.20 in Rain , Thunderstorm Thunderstorms and Rain
7:03 PM 69.8 °F - 64.4 °F 83% 30.10 in 3.0 mi ENE 12.7 mph 20.7 mph 0.35 in Rain Light Rain
7:45 PM 71.6 °F - 66.2 °F 83% 30.10 in 10.0 mi Calm Calm - 0.42 in   Overcast
7:54 PM 71.1 °F - 68.0 °F 90% 30.08 in 10.0 mi WSW 3.5 mph - 0.42 in   Overcast
8:54 PM 71.1 °F - 68.0 °F 90% 30.08 in 10.0 mi WSW 3.5 mph - N/A   Mostly Cloudy
9:54 PM 72.0 °F - 70.0 °F 93% 30.08 in 8.0 mi SW 3.5 mph - 0.00 in Rain Light Rain
10:54 PM 72.0 °F - 70.0 °F 93% 30.09 in 7.0 mi South 4.6 mph - 0.00 in   Mostly Cloudy
11:54 PM 71.1 °F - 69.1 °F 93% 30.08 in 9.0 mi South 4.6 mph - N/A   Mostly Cloudy